Regional Weather Roundup
Issued by NWS Grand Forks, ND

Home | Current Version | Previous Version | Graphics & Text | Print | Product List | Glossary On
Versions: 1 2 3 4 5 6 7 8 9 10 11 12 13 14 15 16 17 18 19 20 21 22 23 24 25 26 27 28 29 30 31 32 33 34 35 36 37 38 39 40 41 42 43 44 45 46 47 48 49 50
000
ASUS43 KFGF 030210
RWRFGF
PRAIRIE TO PINES  WEATHER ROUNDUP
NATIONAL WEATHER SERVICE EASTERN NORTH DAKOTA/GRAND FORKS ND
900 PM CDT SUN AUG 02 2015

 **SATELLITE DATA USED TO AUGMENT SKY COVER AT AUTOMATED STATIONS**
 *****  WEATHER ACROSS EASTERN NORTH DAKOTA  *****

CITY           SKY/WX    TMP DP  RH WIND       PRES   REMARKS
GRAND FORKS    PTCLDY    66  50  56 NW7       29.82R
GRAND FRKS AFB CLEAR     67  49  53 NW8       29.84R
DEVILS LAKE    CLEAR     66  48  52 NW8       29.88R
FARGO          CLEAR     68  52  56 W6        29.84S
WAHPETON ARPT  CLEAR     64  46  52 N6        29.86S
$$

 ***** WEATHER ACROSS CENTRAL AND WESTERN NORTH DAKOTA  *****

CITY           SKY/WX    TMP DP  RH WIND       PRES   REMARKS
BISMARCK       CLEAR     74  51  44 N8        29.94S
MINOT          CLEAR     70  48  45 NW10      29.92S
JAMESTOWN      CLEAR     66  54  65 NW7       29.89S
MINOT AFB      CLEAR     72  52  49 NW8       29.92R
GARRISON         N/A     68  57  68 NW3       29.94S
WILLISTON      CLEAR     75  46  35 N9        29.98R
DICKINSON      CLEAR     70  49  47 N6        29.98R
HETTINGER      CLEAR     72  49  44 NE10      30.00R
$$

 *****  OTHER AIRPORT OBSERVATIONS IN OUR AREA  *****

CITY           SKY/WX    TMP DP  RH WIND       PRES   REMARKS
WALHALLA       FAIR      66  50  55 MISG      29.84R
GRAFTON AIRPOR FAIR      70  50  49 W10       29.83S
VALLEY CITY AR FAIR      64  54  68 W7        29.88S
CANDO          NOT AVBL
CAVALIER APRT  FAIR      66  48  52 NW6       29.83R
GWINNER        FAIR      68  54  60 NW5       29.89R
SHEYENNE NWR     N/A     70  52  52 CALM      29.95S
ROLLA          FAIR      59  50  72 NW8       29.92R
 ***** THE ABOVE OBSERVATIONS ARE NON NWS ARE NOT QUALITY
       CONTROLLED AND MAY MIS-REPORT RAIN FOR SNOW...
$$

  *****  WEATHER ACROSS NORTHERN MINNESOTA  *****

CITY           SKY/WX    TMP DP  RH WIND       PRES   REMARKS
FLAG ISLAND    CLOUDY    66  48  52 W13       29.75S
WARROAD        CLEAR     64  46  52 W8        29.79S
ROSEAU         CLEAR     63  48  59 W5        29.80S
HALLOCK        CLEAR     64  48  55 N6        29.81S
THF RVR FALLS  PTCLDY    66  52  59 CALM      29.82S
BAUDETTE       CLOUDY    65  47  52 NW10      29.77R
WASKISH        CLEAR     66  48  52 W14       29.79S
CROOKSTON      CLEAR     66  52  59 NW7       29.83R
STEPHEN NDAWN    N/A     66  54  63 N3          N/A
GREENBUSH NDAW   N/A     61  52  72 W3          N/A
$$
  *****  WEATHER ACROSS CENTRAL AND WEST MINNESOTA  *****

CITY           SKY/WX    TMP DP  RH WIND       PRES   REMARKS
FOSSTON        CLEAR     63  48  59 CALM      29.83S
BEMIDJI        CLEAR     62  43  50 NW8       29.81S
PARK RAPIDS    CLEAR     63  48  58 W6        29.82S
ELBOW LAKE     FAIR      67  52  58 NW8       29.86R
WADENA         CLEAR     63  46  55 CALM      29.84S
DETROIT LAKES  CLEAR     66  48  52 W6        29.86S
MOORHEAD       CLEAR     64  54  68 NW7       29.85S
FERGUS FALLS   CLEAR     64  54  68 N5        29.85R
MORRIS MN      CLEAR     66  55  68 NW8       29.85R
STAPLES        CLEAR     63  46  55 NW7       29.84R
$$
  *****  WEATHER ELSEWHERE ACROSS MINNESOTA  *****

CITY           SKY/WX    TMP DP  RH WIND       PRES   REMARKS
DULUTH         PTCLDY    65  46  50 W8        29.75R
INTRNTL FALLS  CLOUDY    62  47  57 W5        29.75R
ELY            CLOUDY    63  45  51 N7G18     29.74R
CLOQUET        CLEAR     64  45  48 W6        29.76S
WHEATON        CLEAR     64  54  68 NW6       29.88R
BRAINERD       CLEAR     68  46  45 NW9       29.81R
HIBBING        CLOUDY    65  48  54 W10       29.76R
ALEXANDRIA     CLEAR     68  51  54 NW8       29.86R
SAINT CLOUD    CLEAR     65  52  62 NW7       29.80R
MINNEAPOLIS    CLEAR     75  51  43 NW16G28   29.77R
$$

  *****  WEATHER ACROSS SOUTH DAKOTA  *****

CITY           SKY/WX    TMP DP  RH WIND       PRES   REMARKS
SIOUX FALLS    CLEAR     71  61  70 N8        29.88R
BROOKINGS      CLEAR     68  57  68 NW5       29.91R
WATERTOWN      CLEAR     68  56  65 N6        29.89R
HURON          CLEAR     73  60  63 NE5       29.89R
SISSETON         N/A     64  57  78 N7        29.86R
ABERDEEN       CLEAR     74  59  59 NE3       29.89R
MITCHELL       CLEAR     71  62  73 NE5       29.90R
PIERRE         CLEAR     74  54  49 N7        29.90R
MOBRIDGE       CLEAR     72  58  61 NE5       29.91R
RAPID CITY     CLEAR     74  56  53 NE10      29.99R
$$

  *****  SOME WEATHER IN NEARBY STATES *****

CITY           SKY/WX    TMP DP  RH WIND       PRES   REMARKS
GLASGOW MT     CLEAR     78  47  33 N7        29.98R
GREAT FALLS MT CLEAR     82  40  22 E10       29.95S
CHEYENNE WY    MOCLDY    77  47  34 S10       30.12R
SCOTTSBLUFF NE MOCLDY    80  59  48 E5        29.96S
OMAHA NE       PTCLDY    82  75  79 NW6       29.81R
DES MOINES IA  PTCLDY    77  67  71 SW7       29.81R
DAVENPORT IA   PTCLDY    82  74  76 SW10      29.72F
CHICAGO IL     MOCLDY    85  70  60 SW14G26   29.65F
EAU CLAIRE WI  CLEAR     71  56  58 NW8       29.72R
LA CROSSE WI   MOCLDY    77  63  61 NW6       29.70R
$$

  *****  SOME NATIONAL WEATHER *****

CITY           SKY/WX    TMP DP  RH WIND       PRES   REMARKS
LA GUARDIA NY  PTCLDY    79  64  60 S8        29.87F
RALEIGH NC     MOCLDY    76  61  59 E3        29.95R
ATLANTA GA     MOCLDY    85  67  54 SE7       29.90R
NEW ORLEANS LA MOCLDY    86  67  52 S6        29.86R
OKLAHOMA CITY  MOCLDY    76  67  73 SE7       29.89S
ALBUQUERQUE NM MOCLDY    75  54  47 SE8       30.10F
SALT LAKE CITY CLOUDY    81  48  31 SE18G24   29.95S
LOS ANGELES CA PTCLDY    72  62  71 SW14      29.83F
BOISE ID       CLOUDY    96  45  17 W3        29.77S HX  92
SEATTLE WA     CLOUDY    84  47  27 S3        29.90F
$$

*** WEATHER ACROSS MANITOBA...SASKATCHEWAN AND ONTARIO ***
                ***ONTARIO***

CITY           SKY/WX    TMP DP  RH WIND       PRES   REMARKS
GERALDTON      CLOUDY    57  50  77 W6        29.60R
THUNDER BAY    MOCLDY    64  50  59 W7        29.64R
SIOUX LOOKOUT  LGT RAIN  55  52  88 NW10      29.70S
TORONTO        CLOUDY    70  63  78 SE8       29.63F
BIG TROUT LK   CLOUDY    50  46  87 NW9G17    29.56R
PICKLE LAKE    LGT RAIN  54  50  87 NW9G17    29.62R
DRYDEN         CLOUDY    59  48  67 W8        29.72S
KENORA         MOCLDY    63  48  59 NW15G26   29.76R
$$
                *** MANITOBA***

CITY           SKY/WX    TMP DP  RH WIND       PRES   REMARKS
BRANDON        CLEAR     63  52  67 NW9       29.88S
DAUPHIN        CLEAR     61  52  72 NW6       29.86R
ISLAND LAKE    LGT RAIN  55  52  88 N14       29.69R
PILOT MOUND      N/A     61  50  67 NW7         N/A
THE PAS        MOCLDY    64  48  55 N10       29.87S
THOMPSON       LGT RAIN  54  48  82 NW14      29.79R
WINNIPEG       MOCLDY    59  48  67 NW7       29.82R
LYNN LAKE      PTCLDY    61  46  59 N10       29.85S
CHURCHILL      LGT RAIN  46  45  93 NE14G21   29.75R FOG
GILLAM         DRZL/FOG  50  50 100 N24G30    29.70R VSB 1
$$
                ***SASKATCHEWAN***

CITY           SKY/WX    TMP DP  RH WIND       PRES   REMARKS
ESTEVAN        PTCLDY    68  52  56 NW8       29.97S
KINDERSLEY     PTCLDY    72  54  53 E7        29.99S
LLOYDMINSTER   MOCLDY    72  50  46 E2        29.99S
PRINCE ALBERT  PTCLDY    70  52  52 NW8       29.94S
REGINA         PTCLDY    70  52  52 NW7       29.99S
YORKTON        CLEAR     66  50  55 NW8       29.93R
N. BATTLEFORD  CLEAR     72  52  49 N3        30.00S
LA RONGE       CLEAR     72  39  30 NW8       29.90S
SASKATOON      PTCLDY    72  54  53 NW3       29.98S
SWIFT CURRENT  PTCLDY    72  54  53 E3        30.01F
$$
NOTE: THESE ARE AUTOMATED STATIONS WITH LIMITED QUALITY CONTROL
      "FAIR" INDICATES FEW OR NO CLOUDS BELOW 12,000 FEET WITH NO
      SIGNIFICANT WEATHER AND/OR OBSTRUCTIONS TO VISIBILITY.
      SKY/WX - SKY CONDITION AND SIGNIFICANT WEATHER.
      TMP - AIR TEMPERATURE.    DP   - DEWPOINT TEMPERATURE.
      RH  - RELATIVE HUMIDITY.  PRES - PRESSURE.
      HX  - HEAT INDEX.         WCI  - WIND CHILL INDEX.
$



USA.gov is the U.S. government's official web portal to all federal, state and local government web resources and services.